User: anonymous   Login
Location: Vancouver
(49.2500°N, 123.1330°W)
Time: 20:39:01
(UTC-07:00)
Language:

ISS - Orbit

View from above orbital plane
View from above orbital plane
View from above satellite
View from above satellite

Ground track
Ground track

The orbit data is extracted from the following two-line orbital elements,

1 25544U 98067A   16152.95569536  .00002726  00000-0  47410-4 0  9990
2 25544  51.6432 138.9992 0001750 140.9697 299.9896 15.54719058  2462
Epoch (UTC): 31 May 2016 22:56:12
Eccentricity: 0.0001750
inclination: 51.6432°
perigee height: 402 km
apogee height: 404 km
right ascension of ascending node: 138.9992°
argument of perigee: 140.9697°
revolutions per day: 15.54719058
mean anomaly at epoch: 299.9896°
orbit number at epoch: 246

The dashed part of the orbit path shows where the satellite is in the earth's shadow,  

DLR